Home   Weather   Cedar Rapids   Past weeks
Flag for USA

Past Weather in Cedar Rapids, Iowa, USA — Yesterday and Last 2 Weeks

Now
43 °F

Clear.


Feels Like: 38 °F
Forecast: 66 / 41 °F
Wind: 8 mph from Southeast

Location: Cedar Rapids Municipal Airport

Current Time: Oct 17, 2019 at 11:40:34 pm

Latest Report: Oct 17, 2019 at 9:52 pm


Visibility: 9 mi

Pressure: 29.98 "Hg

Humidity: 79%

Dew Point: 37 °F

Location of Cedar RapidsLocation

Past Weather in Cedar Rapids — Graph

°F

Cedar Rapids Temperature Yesterday

Maximum temperature yesterday: 48 °F (at 2:52 pm)
Minimum temperature yesterday: 36 °F (at 10:52 pm)
Average temperature yesterday: 43 °F

High & Low Weather Summary for the Past Weeks

 TemperatureHumidityPressure
High69 °F (Oct 8, 1:52 pm)100% (Oct 2, 9:52 pm)30.43 "Hg (Oct 2, 9:52 pm)
Low30 °F (Oct 12, 4:52 am)32% (Oct 7, 3:52 pm)29.74 "Hg (Oct 10, 11:52 pm)
Average49 °F78%30.03 "Hg
* Reported Oct 2 9:52 pm — Oct 17 9:52 pm, Cedar Rapids. Weather by CustomWeather, © 2019

Note: Actual official high and low records may vary slightly from our data, if they occured in-between our weather recording intervals... More about our weather records

Advertising

Cedar Rapids Weather History for the Previous 24 Hours

Scroll right to see more
 ConditionsComfort  
Time TempWeatherWind HumidityBarometerVisibility
9:52 pm
Thu, Oct 17
43 °FClear.8 mph79%29.98 "Hg9 mi
8:52 pm44 °FClear.7 mph76%29.97 "Hg10 mi
7:52 pm42 °FClear.7 mph82%29.98 "Hg9 mi
6:52 pm47 °FClear.7 mph71%29.97 "Hg10 mi
5:52 pm53 °FSunny.7 mph59%29.97 "Hg9 mi
4:52 pm56 °FSunny.8 mph53%29.97 "Hg10 mi
3:52 pm57 °FSunny.7 mph51%29.98 "Hg10 mi
2:52 pm56 °FSunny.No wind53%29.99 "Hg9 mi
1:52 pm55 °FSunny.No wind53%30.02 "Hg10 mi
12:52 pm54 °FSunny.5 mph57%30.05 "Hg10 mi
11:52 am51 °FSunny.5 mph61%30.07 "Hg10 mi
10:52 am48 °FSunny.5 mph66%30.09 "Hg9 mi
8:52 am38 °FFog.No wind97%30.09 "Hg6 mi
7:52 am30 °FSunny.3 mph100%30.08 "Hg10 mi
6:52 am32 °FClear.No wind100%30.07 "Hg7 mi
5:52 am32 °FClear.No wind100%30.06 "Hg7 mi
4:52 am33 °FClear.No wind96%30.06 "Hg7 mi
3:52 am35 °FClear.No wind96%30.07 "Hg10 mi
2:52 am33 °FPassing clouds.No wind96%30.08 "Hg9 mi
1:52 am34 °FClear.No wind97%30.08 "Hg9 mi
12:52 am37 °FClear.No wind93%30.09 "Hg10 mi
11:52 pm
Wed, Oct 16
36 °FClear.6 mph92%30.10 "Hg10 mi
Weather by CustomWeather, © 2019

See weather overview